[[{"header":{"parameterUnit":"m.s-1","parameterCategory":1,"la1":30.2991,"la2":30.254,"lo1":-89.0895,"lo2":-89.0444,"dy":0.0017,"dx":0.0017,"nx":28,"ny":28,"refTime":"2025-03-03T03:00:00:Z","depth":0,"parameterNumber":2,"parameterNumberName":"U-component_of_WINDS"},"data":[0,0,0,0,0,0,0,0,0,0,0,0,0,0,0,0,0,0,0,0,0,0,0,0,0,0,0,0,0,0,0,0,0,0,0,0,0,0,0,0,0,0,0,0,0,0,0,0,0,0,0,0,0,0,0,0,0,0,-5.2748,-5.2748,0,-5.2801,-5.2802,-5.2803,-5.2754,-5.2752,-5.275,-5.2748,-5.2803,-5.2806,-5.281,0,0,0,0,0,0,0,0,0,0,0,0,0,-5.2605,-5.2608,-5.2748,-5.2749,-5.2749,-5.2801,-5.2802,-5.2803,-5.2754,-5.2752,-5.275,-5.2747,-5.2802,-5.2806,-5.281,0,0,0,0,0,0,0,0,0,0,0,0,0,-5.2664,-5.2609,-5.2748,-5.2731,-5.273,-5.2801,-5.2802,-5.2803,-5.2755,-5.2752,-5.2749,-5.2746,-5.2801,-5.2806,-5.2811,-5.29,0,0,-5.2826,-5.2828,0,0,0,0,0,0,0,0,-5.2661,-5.2669,-5.2733,-5.2733,-5.2732,-5.2768,-5.2772,-5.2836,-5.2756,-5.2746,-5.2748,-5.2745,-5.2794,-5.2799,-5.2816,-5.2903,-5.2905,-5.2826,-5.2829,-5.2831,-5.2833,0,0,0,0,0,0,0,-5.2657,-5.2667,-5.2769,-5.2734,-5.2733,-5.2722,-5.2727,-5.2784,-5.2786,-5.2746,-5.2743,-5.275,-5.2793,-5.2811,-5.2817,-5.2906,-5.2826,-5.283,-5.2833,-5.2835,-5.3071,-5.3074,0,0,0,0,0,0,-5.2654,-5.2663,-5.2767,-5.2771,-5.2688,-5.2727,-5.2732,-5.2759,-5.2785,-5.2786,-5.2752,-5.2747,-5.2804,-5.2811,-5.2818,-5.2925,-5.2831,-5.2836,-5.2839,-5.3068,-5.3071,-5.3075,0,0,0,0,0,0,-5.2651,-5.2664,-5.2765,-5.2716,-5.2728,-5.2732,-5.2763,-5.2762,-5.278,-5.279,-5.279,-5.277,-5.2802,-5.2811,-5.2881,-5.2926,-5.2838,-5.2843,-5.3064,-5.3069,-5.3073,-5.3139,0,0,0,0,0,0,-5.2647,-5.2663,-5.2697,-5.2717,-5.2731,-5.2826,-5.2766,-5.2765,-5.2789,-5.2783,-5.2806,-5.2808,-5.28,-5.2873,-5.2885,-5.2931,-5.2846,-5.3059,-5.3066,-5.3072,-5.3133,-5.3145,-5.3156,0,0,0,0,0,-5.2642,-5.2713,-5.2698,-5.2711,-5.2773,-5.2828,-5.2836,-5.2827,-5.2792,-5.2826,-5.2833,-5.2807,-5.292,-5.2881,-5.2894,-5.2942,-5.3056,-5.3064,-5.3071,-5.3127,-5.3143,-5.3156,0,0,0,0,0,0,-5.2696,-5.2715,-5.2699,-5.2778,-5.2802,-5.282,-5.2862,-5.2843,-5.2877,-5.287,-5.2857,-5.2863,-5.2936,-5.2946,-5.2902,-5.3031,-5.2983,-5.2993,-5.3021,-5.3036,-5.3048,-5.3042,-5.2851,0,0,0,0,0,-5.2718,-5.2761,-5.2775,-5.2844,-5.2857,-5.2858,-5.2882,-5.2873,-5.2897,-5.2906,-5.2918,-5.2943,-5.2984,-5.3011,-5.3049,-5.3135,-5.314,-5.3175,-5.3187,-5.3197,-5.3205,-5.3252,-5.3267,-5.3099,-5.3099,-5.3099,0,0,-5.2762,-5.2777,-5.2805,-5.2855,-5.2872,-5.2918,-5.2866,-5.2916,-5.295,-5.2914,-5.2979,-5.2989,-5.3016,-5.3094,-5.3129,-5.3105,-5.3253,-5.3206,-5.3214,-5.3217,-5.3261,-5.3277,-5.3291,-5.3104,-5.3103,-5.3103,0,0,-5.2865,-5.2881,-5.294,-5.2959,-5.2986,-5.2987,-5.3002,-5.3023,-5.3028,-5.3094,-5.3068,-5.3109,-5.318,-5.32,-5.322,-5.3334,-5.3311,-5.3348,-5.3409,-5.3454,-5.3467,-5.3479,-5.3519,-5.3533,-5.3356,-5.3357,-5.3357,0,-5.2915,-5.2982,-5.2973,-5.3025,-5.3048,-5.3019,-5.3078,-5.3097,-5.3136,-5.3153,-5.3126,-5.3215,-5.3232,-5.3314,-5.3342,-5.3359,-5.3375,-5.3343,-5.3466,-5.3478,-5.3489,-5.3526,-5.3542,-5.3361,-5.336,-5.336,-5.3359,0,-5.3043,-5.3091,-5.3135,-5.3173,-5.3202,-5.3258,-5.3257,-5.3287,-5.3277,-5.3281,-5.3349,-5.3368,-5.341,-5.3429,-5.3419,-5.3511,-5.3495,-5.3468,-5.3419,-5.3509,-5.3544,-5.3559,-5.3366,-5.3365,-5.3364,-5.3363,0,0,-5.3178,-5.3212,-5.3229,-5.3246,-5.3276,-5.3312,-5.3368,-5.3409,-5.3435,-5.3464,-5.351,-5.3572,-5.3548,-5.357,-5.3563,-5.3603,-5.3692,-5.3571,-5.3571,-5.3591,-5.3794,-5.3813,-5.383,-5.3679,-5.3681,-5.3684,-5.3791,0,-5.3281,-5.3376,-5.337,-5.346,-5.3504,-5.3479,-5.3527,-5.3551,-5.3557,-5.3596,-5.3603,-5.3647,-5.3612,-5.3625,-5.3664,-5.3673,-5.3732,-5.3666,-5.3721,-5.3723,-5.3712,-5.3848,-5.3868,-5.3968,-5.3805,-5.3807,-5.3809,0,-5.3412,-5.3446,-5.354,-5.3565,-5.3583,-5.3626,-5.3664,-5.3702,-5.3729,-5.3731,-5.3758,-5.3745,-5.3801,-5.3754,-5.3832,-5.3787,-5.381,-5.3818,-5.3822,-5.3824,-5.3769,-5.3853,-5.4,-5.4014,-5.3831,-5.3829,-5.3828,0,-5.3499,-5.3569,-5.3634,-5.365,-5.3681,-5.3712,-5.3726,-5.375,-5.3776,-5.3811,-5.3827,-5.3868,-5.389,-5.3922,-5.392,-5.3886,-5.4,-5.3952,-5.4003,-5.4003,-5.4025,-5.4023,-5.4176,-5.4044,-5.4044,-5.4044,-5.4043,0,-5.3613,-5.3672,-5.3674,-5.3714,-5.3779,-5.3773,-5.3838,-5.3849,-5.3872,-5.3914,-5.3896,-5.3936,-5.3932,-5.3973,-5.3973,-5.4038,-5.4049,-5.4052,-5.405,-5.4052,-5.4051,-5.4064,-5.4057,-5.4048,-5.4047,-5.4046,-5.4045,0,-5.372,-5.3724,-5.3793,-5.3817,-5.3825,-5.3872,-5.3892,-5.3931,-5.3937,-5.3991,-5.4003,-5.4013,-5.406,-5.4063,-5.4118,-5.4117,-5.4196,-5.4188,-5.4186,-5.4184,-5.4234,-5.4229,-5.4399,-5.4421,-5.4277,-5.4278,-5.4279,0,-5.3791,-5.3835,-5.3865,-5.3891,-5.3908,-5.3952,-5.3978,-5.3975,-5.4004,-5.404,-5.4074,-5.412,-5.4156,-5.4234,-5.4246,-5.4288,-5.428,-5.4337,-5.4286,-5.4286,-5.4279,-5.4275,-5.428,-5.4346,-5.4347,-5.4349,-5.435,0,-5.3916,-5.3917,-5.3955,-5.3996,-5.4028,-5.406,-5.4089,-5.4113,-5.4113,-5.4147,-5.4195,-5.4223,-5.428,-5.4326,-5.4368,-5.4383,-5.4367,-5.4366,-5.438,-5.438,-5.4377,-5.4378,-5.4211,-5.4361,-5.436,-5.4359,-5.4359,-5.4358,-5.4006,-5.4045,-5.4071,-5.4116,-5.4138,-5.4166,-5.4204,-5.4215,-5.4255,-5.4301,-5.4298,-5.4351,-5.438,-5.4434,-5.4453,-5.4496,-5.4476,-5.4497,-5.4501,-5.4506,-5.451,-5.4373,-5.4504,-5.4503,-5.4503,-5.4503,-5.4503,0,-5.4129,-5.4146,-5.4187,-5.4229,-5.4264,-5.4247,-5.4279,-5.431,-5.4357,-5.4385,-5.4422,-5.4478,-5.4524,-5.454,-5.4585,-5.4616,-5.4609,-5.4627,-5.4623,-5.4627,-5.4526,-5.4509,-5.4631,-5.4631,-5.4631,-5.4631,-5.4631,-5.4631,-5.4197,-5.4261,-5.4265,-5.4341,-5.4357,-5.4409,-5.4429,-5.4456,-5.4478,-5.4542,-5.4579,-5.459,-5.4614,-5.466,-5.4702,-5.4705,-5.4722,-5.4743,-5.4743,-5.4648,-5.4634,-5.4622,-5.4606,-5.4747,-5.4747,-5.4841,-5.4842,-5.4843]},{"header":{"parameterUnit":"m.s-1","parameterCategory":1,"la1":30.2991,"la2":30.254,"lo1":-89.0895,"lo2":-89.0444,"dy":0.0017,"dx":0.0017,"nx":28,"ny":28,"refTime":"2025-03-03T03:00:00:Z","depth":0,"parameterNumber":3,"parameterNumberName":"V-component_of_WINDS"},"data":[0,0,0,0,0,0,0,0,0,0,0,0,0,0,0,0,0,0,0,0,0,0,0,0,0,0,0,0,0,0,0,0,0,0,0,0,0,0,0,0,0,0,0,0,0,0,0,0,0,0,0,0,0,0,0,0,0,0,4.5878,4.5879,0,4.5905,4.5905,4.5905,4.5858,4.5856,4.5855,4.5853,4.5877,4.5879,4.5881,0,0,0,0,0,0,0,0,0,0,0,0,0,4.5786,4.5788,4.5878,4.5879,4.5879,4.5905,4.5905,4.5905,4.5858,4.5856,4.5854,4.5853,4.5876,4.5879,4.5881,0,0,0,0,0,0,0,0,0,0,0,0,0,4.5821,4.5789,4.5878,4.5859,4.5857,4.5905,4.5905,4.5905,4.5859,4.5856,4.5854,4.5852,4.5875,4.5878,4.5881,4.5948,0,0,4.5891,4.5892,0,0,0,0,0,0,0,0,4.5819,4.5824,4.5861,4.586,4.5859,4.5876,4.5881,4.592,4.5859,4.5858,4.5853,4.5851,4.5878,4.5881,4.5891,4.5949,4.595,4.5891,4.5893,4.5895,4.5895,0,0,0,0,0,0,0,4.5816,4.5823,4.5889,4.5862,4.586,4.5848,4.5851,4.5888,4.5881,4.5858,4.5855,4.5859,4.5877,4.5888,4.5891,4.5951,4.5891,4.5894,4.5896,4.5897,4.6068,4.607,0,0,0,0,0,0,4.5817,4.5821,4.5888,4.5889,4.5833,4.5852,4.5854,4.5872,4.588,4.5879,4.5861,4.5856,4.5884,4.5887,4.5892,4.5972,4.5895,4.5898,4.5899,4.6065,4.6068,4.6071,0,0,0,0,0,0,4.5815,4.5823,4.5887,4.5854,4.5862,4.5856,4.5877,4.5874,4.5885,4.5882,4.5881,4.5873,4.5882,4.5887,4.5935,4.5972,4.5899,4.5902,4.6062,4.6066,4.607,4.6131,0,0,0,0,0,0,4.5813,4.5823,4.5848,4.5855,4.5864,4.593,4.5879,4.5876,4.5891,4.5886,4.5894,4.5893,4.5881,4.5931,4.5938,4.5975,4.5904,4.6059,4.6064,4.6068,4.6126,4.6137,4.6146,0,0,0,0,0,4.5809,4.5863,4.5849,4.5858,4.5895,4.5932,4.5937,4.5923,4.5894,4.592,4.5918,4.5893,4.5967,4.5936,4.5944,4.5982,4.6056,4.6062,4.6068,4.6121,4.6135,4.6146,0,0,0,0,0,0,4.5857,4.5863,4.5848,4.5906,4.592,4.5924,4.5955,4.5937,4.5957,4.5951,4.5932,4.5934,4.5987,4.5989,4.5955,4.6049,4.6007,4.6015,4.6045,4.6057,4.6067,4.6065,4.5907,0,0,0,0,0,4.5875,4.5906,4.5909,4.5959,4.5967,4.5961,4.5976,4.5965,4.5977,4.5982,4.5984,4.5996,4.6023,4.604,4.6064,4.6127,4.6128,4.6157,4.6167,4.6176,4.6182,4.6218,4.6231,4.6091,4.6091,4.609,0,0,4.5911,4.5918,4.5938,4.5969,4.5978,4.601,4.5965,4.6,4.6024,4.5987,4.6033,4.6035,4.6048,4.6104,4.6129,4.6108,4.6222,4.6183,4.619,4.6192,4.6225,4.6238,4.625,4.6095,4.6094,4.6093,0,0,4.5993,4.6001,4.6045,4.6056,4.6072,4.6068,4.6079,4.6087,4.6088,4.6135,4.6108,4.6136,4.6181,4.6192,4.6204,4.6295,4.6272,4.6303,4.6356,4.639,4.6401,4.6411,4.6444,4.6457,4.631,4.631,4.631,0,4.6035,4.6083,4.607,4.6108,4.6123,4.6094,4.6139,4.615,4.6172,4.6183,4.6159,4.6218,4.6224,4.6284,4.6307,4.6316,4.6329,4.6301,4.6401,4.6411,4.642,4.6451,4.6464,4.6314,4.6314,4.6313,4.6313,0,4.6135,4.6169,4.6203,4.6228,4.6247,4.6288,4.6281,4.6302,4.629,4.6289,4.6338,4.6345,4.6371,4.6385,4.6372,4.6443,4.643,4.6404,4.6362,4.6437,4.6466,4.6478,4.6319,4.6318,4.6317,4.6316,0,0,4.6244,4.6265,4.6277,4.6289,4.6306,4.6332,4.6373,4.6401,4.6419,4.6436,4.647,4.6512,4.6489,4.6502,4.6491,4.6522,4.6595,4.6493,4.6493,4.6512,4.6676,4.6695,4.6709,4.6581,4.6583,4.6585,4.6675,0,4.6327,4.6399,4.639,4.6459,4.6491,4.6466,4.6502,4.6516,4.6517,4.6544,4.6544,4.6574,4.6542,4.655,4.6579,4.658,4.6628,4.6574,4.6612,4.6614,4.661,4.6724,4.6743,4.6827,4.6686,4.6688,4.6689,0,4.6431,4.6455,4.6528,4.6543,4.6556,4.6589,4.6615,4.6641,4.6658,4.6656,4.6674,4.6658,4.6699,4.6658,4.6715,4.6678,4.6694,4.6697,4.67,4.6703,4.6656,4.673,4.6854,4.6867,4.6707,4.6706,4.6705,0,4.6505,4.6555,4.6606,4.6617,4.6635,4.6659,4.6668,4.6682,4.67,4.6723,4.6735,4.6762,4.6776,4.6797,4.679,4.676,4.6849,4.6806,4.6849,4.6849,4.6868,4.6866,4.6996,4.6879,4.6878,4.6878,4.6878,0,4.6597,4.6643,4.664,4.6671,4.6722,4.6712,4.6763,4.6768,4.6782,4.6814,4.6793,4.6823,4.6812,4.6841,4.6835,4.6885,4.6891,4.6891,4.6889,4.6893,4.6893,4.6902,4.6896,4.6882,4.6881,4.688,4.688,0,4.6687,4.6687,4.6741,4.6756,4.6761,4.6798,4.681,4.6839,4.684,4.6881,4.689,4.6891,4.6925,4.692,4.6957,4.6953,4.7015,4.7005,4.701,4.7007,4.7051,4.7047,4.7191,4.7209,4.708,4.7081,4.7082,0,4.6746,4.6781,4.6801,4.6822,4.6833,4.6867,4.6886,4.6879,4.69,4.6924,4.6951,4.6984,4.7009,4.7065,4.7068,4.7097,4.7088,4.7137,4.7092,4.7096,4.7089,4.7088,4.7091,4.7145,4.7147,4.7148,4.7149,0,4.685,4.685,4.6879,4.6911,4.6936,4.6959,4.698,4.6998,4.6993,4.7018,4.7054,4.7074,4.7114,4.7147,4.7175,4.7183,4.7166,4.7163,4.7175,4.7179,4.718,4.7181,4.7034,4.7159,4.7158,4.7158,4.7157,4.7157,4.6926,4.6958,4.6978,4.7013,4.7029,4.705,4.708,4.7086,4.7116,4.7149,4.7143,4.7184,4.7202,4.7238,4.725,4.7281,4.7263,4.728,4.7284,4.7288,4.7294,4.7176,4.7286,4.7286,4.7286,4.7285,4.7285,0,4.703,4.7043,4.7076,4.7108,4.7136,4.712,4.7143,4.7167,4.7204,4.7224,4.7251,4.7293,4.7326,4.7334,4.7365,4.7389,4.7382,4.7398,4.7395,4.7398,4.7307,4.7295,4.7403,4.7403,4.7403,4.7403,4.7403,4.7403,4.7088,4.714,4.7143,4.7204,4.7216,4.7258,4.7273,4.7293,4.7309,4.7358,4.7386,4.7392,4.7407,4.744,4.7469,4.7471,4.7483,4.7503,4.7501,4.7416,4.7404,4.7393,4.7381,4.7505,4.7505,4.7588,4.7589,4.759]}]]